Weather History for KBFW - September, 2013

Change the Weather History Date:

Saturday, September 7, 2013

  Actual Average Record
Temperature  
Mean Temperature 63 °F -  
Max Temperature 78 °F 68 °F 86 °F (2002)
Min Temperature 48 °F 44 °F 1 °F (1997)
Degree Days  
Heating Degree Days 2    
Growing Degree Days 13 (Base 50)    
Moisture  
Dew Point 57 °F    
Average Humidity 78    
Maximum Humidity 94    
Minimum Humidity 54    
Precipitation  
Precipitation 0.00 in - - ()
Sea Level Pressure  
Sea Level Pressure 29.99 in    
Wind  
Wind Speed 1 mph (East)    
Max Wind Speed 14 mph    
Max Gust Speed 22 mph    
Visibility 9 miles    
Events      
Averages and records for this station are not official NWS values.
T = Trace of Precipitation, MM = Missing Value Source: NWS Daily Summary

Daily Weather History Graph

Daily Weather History Graph

Search for Another Location

Airport or City:

Trip Planner

Search our weather history database for the weather conditions in past years. The results will help you decide how hot, cold, wet, or windy it might be!

Date:

Astronomy

Sep. 07, 2013 Rise Set
Actual Time 6:32 AM CDT 7:33 PM CDT
Civil Twilight 6:01 AM CDT 8:04 PM CDT
Nautical Twilight 5:24 AM CDT 8:41 PM CDT
Astronomical Twilight 4:44 AM CDT 9:21 PM CDT
Moon 9:00 AM CDT (9/7) 8:17 PM CDT (9/7)
Length of Visible Light 14h 02m
Length of Day
13h 00m
Waxing Crescent, 5% of the Moon is Illuminated
Sep 7
Waxing Crescent
Sep 12
First Quarter
Sep 19
Full
Sep 26
Last Quarter
Oct 4
New

Hourly Weather History & Observations

Time (CDT) Temp. Dew Point Humidity Pressure Visibility Wind Dir Wind Speed Gust Speed Precip Events Conditions
12:13 AM 66.2 °F 62.6 °F 88% 29.87 in 10.0 mi Calm Calm - N/A   Clear
12:33 AM 66.2 °F 62.6 °F 88% 29.87 in 10.0 mi Calm Calm - N/A   Clear
12:53 AM 66.2 °F 62.6 °F 88% 29.86 in 10.0 mi Calm Calm - N/A   Clear
1:13 AM 66.2 °F 62.6 °F 88% 29.86 in 7.0 mi Calm Calm - N/A   Clear
1:33 AM 64.4 °F 60.8 °F 88% 29.86 in 2.5 mi Calm Calm - N/A   Clear
1:53 AM 64.4 °F 62.6 °F 94% 29.85 in 5.0 mi Calm Calm - N/A   Clear
2:13 AM 64.4 °F 62.6 °F 94% 29.86 in 7.0 mi Calm Calm - N/A   Clear
2:33 AM 64.4 °F 60.8 °F 88% 29.86 in 7.0 mi Calm Calm - N/A   Clear
2:53 AM 64.4 °F 60.8 °F 88% 29.85 in 5.0 mi Calm Calm - N/A   Clear
3:13 AM 62.6 °F 59.0 °F 88% 29.86 in 7.0 mi Calm Calm - N/A   Clear
3:33 AM 64.4 °F 62.6 °F 94% 29.87 in 7.0 mi Calm Calm - N/A   Clear
3:53 AM 62.6 °F 59.0 °F 88% 29.87 in 4.0 mi Calm Calm - N/A   Clear
4:13 AM 64.4 °F 60.8 °F 88% 29.87 in 4.0 mi Calm Calm - N/A   Clear
4:33 AM 60.8 °F 57.2 °F 88% 29.87 in 4.0 mi Calm Calm - N/A   Clear
4:53 AM 60.8 °F 57.2 °F 88% 29.87 in 2.5 mi Calm Calm - N/A   Clear
5:13 AM 62.6 °F 59.0 °F 88% 29.87 in 7.0 mi Calm Calm - N/A   Clear
5:33 AM 66.2 °F 62.6 °F 88% 29.87 in 10.0 mi Calm Calm - N/A   Clear
5:53 AM 66.2 °F 62.6 °F 88% 29.87 in 10.0 mi Calm Calm - N/A   Clear
6:13 AM 66.2 °F 60.8 °F 83% 29.88 in 10.0 mi Calm Calm - N/A   Clear
6:33 AM 64.4 °F 60.8 °F 88% 29.89 in 10.0 mi Calm Calm - N/A   Clear
6:53 AM 64.4 °F 60.8 °F 88% 29.89 in 10.0 mi Calm Calm - N/A   Clear
7:13 AM 64.4 °F 60.8 °F 88% 29.90 in 10.0 mi Calm Calm - N/A   Clear
7:33 AM 66.2 °F 60.8 °F 83% 29.90 in 10.0 mi Calm Calm - N/A   Clear
7:53 AM 69.8 °F 60.8 °F 73% 29.90 in 10.0 mi Calm Calm - N/A   Clear
8:13 AM 71.6 °F 60.8 °F 69% 29.91 in 10.0 mi Calm Calm - N/A   Clear
8:33 AM 71.6 °F 62.6 °F 73% 29.91 in 10.0 mi Calm Calm - N/A   Clear
8:53 AM 73.4 °F 62.6 °F 69% 29.91 in 10.0 mi Calm Calm - N/A   Clear
9:13 AM 75.2 °F 62.6 °F 65% 29.92 in 10.0 mi Calm Calm - N/A   Clear
9:33 AM 75.2 °F 62.6 °F 65% 29.92 in 10.0 mi Calm Calm - N/A   Clear
9:53 AM 77.0 °F 62.6 °F 61% 29.93 in 10.0 mi Calm Calm - N/A   Clear
10:13 AM 77.0 °F 62.6 °F 61% 29.94 in 10.0 mi Calm Calm - N/A   Clear
10:33 AM 77.0 °F 60.8 °F 57% 29.95 in 10.0 mi Calm Calm - N/A   Clear
10:53 AM 78.8 °F 60.8 °F 54% 29.95 in 10.0 mi Calm Calm - N/A   Clear
11:13 AM 78.8 °F 62.6 °F 57% 29.96 in 10.0 mi East 3.5 mph - N/A   Clear
11:33 AM 75.2 °F 60.8 °F 61% 29.97 in 10.0 mi East 5.8 mph - N/A   Clear
11:53 AM 73.4 °F 60.8 °F 65% 29.98 in 10.0 mi East 9.2 mph - N/A   Clear
12:13 PM 75.2 °F 60.8 °F 61% 29.99 in 10.0 mi East 11.5 mph - N/A   Clear
12:33 PM 69.8 °F 59.0 °F 68% 30.00 in 10.0 mi East 10.4 mph 18.4 mph N/A   Clear
12:53 PM 69.8 °F 59.0 °F 68% 30.00 in 10.0 mi ENE 13.8 mph 19.6 mph N/A   Clear
1:13 PM 69.8 °F 57.2 °F 64% 30.02 in 10.0 mi East 10.4 mph 18.4 mph N/A   Clear
1:33 PM 66.2 °F 57.2 °F 73% 30.02 in 10.0 mi ENE 11.5 mph 21.9 mph N/A   Clear
1:53 PM 66.2 °F 57.2 °F 73% 30.03 in 10.0 mi East 11.5 mph 18.4 mph N/A   Clear
2:13 PM 64.4 °F 57.2 °F 77% 30.04 in 10.0 mi East 10.4 mph 17.3 mph N/A   Clear
2:33 PM 64.4 °F 55.4 °F 73% 30.04 in 10.0 mi East 10.4 mph 16.1 mph N/A   Clear
2:53 PM 64.4 °F 57.2 °F 77% 30.04 in 10.0 mi Calm Calm - N/A   Scattered Clouds
3:13 PM 64.4 °F 55.4 °F 73% 30.04 in 10.0 mi ESE 4.6 mph - N/A   Scattered Clouds
3:33 PM 64.4 °F 55.4 °F 73% 30.05 in 10.0 mi Calm Calm - N/A   Scattered Clouds
3:53 PM 64.4 °F 55.4 °F 73% 30.06 in 10.0 mi Calm Calm - N/A   Scattered Clouds
4:13 PM 64.4 °F 55.4 °F 73% 30.06 in 10.0 mi Calm Calm - N/A   Scattered Clouds
4:33 PM 64.4 °F 55.4 °F 73% 30.06 in 10.0 mi Calm Calm - N/A   Scattered Clouds
4:53 PM 64.4 °F 55.4 °F 73% 30.06 in 10.0 mi Calm Calm - N/A   Scattered Clouds
5:13 PM 64.4 °F 53.6 °F 68% 30.07 in 10.0 mi East 4.6 mph - N/A   Clear
5:33 PM 64.4 °F 53.6 °F 68% 30.07 in 10.0 mi Calm Calm - N/A   Clear
5:53 PM 64.4 °F 53.6 °F 68% 30.08 in 10.0 mi Calm Calm - N/A   Clear
6:13 PM 62.6 °F 53.6 °F 72% 30.08 in 10.0 mi Calm Calm - N/A   Clear
6:33 PM 62.6 °F 53.6 °F 72% 30.08 in 10.0 mi Calm Calm - N/A   Clear
6:53 PM 60.8 °F 53.6 °F 77% 30.09 in 10.0 mi Calm Calm - N/A   Clear
7:13 PM 60.8 °F 51.8 °F 72% 30.09 in 10.0 mi Calm Calm - N/A   Clear
7:33 PM 59.0 °F 53.6 °F 82% 30.11 in 10.0 mi Calm Calm - N/A   Clear
7:53 PM 57.2 °F 53.6 °F 88% 30.11 in 10.0 mi Calm Calm - N/A   Clear
8:13 PM 57.2 °F 51.8 °F 82% 30.11 in 10.0 mi Calm Calm - N/A   Clear
8:33 PM 55.4 °F 51.8 °F 88% 30.13 in 10.0 mi Calm Calm - N/A   Clear
8:53 PM 55.4 °F 51.8 °F 88% 30.13 in 10.0 mi Calm Calm - N/A   Clear
9:13 PM 55.4 °F 50.0 °F 82% 30.13 in 10.0 mi Calm Calm - N/A   Clear
9:33 PM 51.8 °F 48.2 °F 88% 30.13 in 7.0 mi Calm Calm - N/A   Clear
9:53 PM 51.8 °F 48.2 °F 88% 30.13 in 10.0 mi Calm Calm - N/A   Clear
10:13 PM 53.6 °F 51.8 °F 94% 30.13 in 10.0 mi Calm Calm - N/A   Clear
10:33 PM 50.0 °F 46.4 °F 87% 30.13 in 10.0 mi Calm Calm - N/A   Clear
10:53 PM 50.0 °F 46.4 °F 87% 30.14 in 10.0 mi Calm Calm - N/A   Clear
11:13 PM 50.0 °F 46.4 °F 87% 30.13 in 10.0 mi Calm Calm - N/A   Clear
11:33 PM 48.2 °F 46.4 °F 93% 30.13 in 10.0 mi Calm Calm - N/A   Clear
11:54 PM 48.2 °F 44.6 °F 87% 30.13 in 10.0 mi Calm Calm - N/A   Clear